This is the latest recevied weather packets stored in our database for station/object IZ5MMH-4. If no packets are shown the sender has not sent any weather packets the latest 10 day(s).
| Time | Temp. | Humidity | Pressure | Rain* | Wind** | Luminosity | Snow |
|---|---|---|---|---|---|---|---|
| 1787775864 | 28.89° C | 68% | 1017.9 hPa | - | - | - | - |
| 1787775263 | 28.89° C | 67% | 1017.9 hPa | - | - | - | - |
| 1787774663 | 29.44° C | 67% | 1017.7 hPa | - | - | - | - |
| 1787774063 | 29.44° C | 67% | 1017.5 hPa | - | - | - | - |
| 1787773464 | 29.44° C | 68% | 1017.1 hPa | - | - | - | - |
| 1787772864 | 29.44° C | 70% | 1017.2 hPa | - | - | - | - |
| 1787772264 | 29.44° C | 70% | 1017.3 hPa | - | - | - | - |
| 1787771663 | 29.44° C | 70% | 1017.2 hPa | - | - | - | - |
| 1787771064 | 29.44° C | 69% | 1017.4 hPa | - | - | - | - |
| 1787770464 | 29.44° C | 70% | 1016.9 hPa | - | - | - | - |
| 1787769864 | 30° C | 70% | 1016.6 hPa | - | - | - | - |
| 1787769263 | 30° C | 71% | 1016.5 hPa | - | - | - | - |
| 1787768663 | 30° C | 74% | 1016.6 hPa | - | - | - | - |
| 1787768063 | 30° C | 73% | 1017.1 hPa | - | - | - | - |
| 1787767463 | 30° C | 71% | 1017.9 hPa | - | - | - | - |
| 1787766864 | 30° C | 70% | 1017.7 hPa | - | - | - | - |
| 1787766264 | 30.56° C | 64% | 1017.4 hPa | - | - | - | - |
| 1787765664 | 30.56° C | 63% | 1016.8 hPa | - | - | - | - |
| 1787765063 | 31.11° C | 63% | 1016.7 hPa | - | - | - | - |
| 1787764463 | 31.11° C | 62% | 1016.5 hPa | - | - | - | - |
| 1787763864 | 31.11° C | 62% | 1016.9 hPa | - | - | - | - |
| 1787763264 | 31.11° C | 61% | 1016.7 hPa | - | - | - | - |
| 1787762663 | 31.11° C | 61% | 1016.5 hPa | - | - | - | - |
| 1787762063 | 31.11° C | 62% | 1016.9 hPa | - | - | - | - |
| 1787761464 | 31.11° C | 64% | 1016.7 hPa | - | - | - | - |
* Rain since midnight (hover to see other rain measurements)
** Current wind speed in m/s (hover to see current wind gust speed)